TimeEDT,TemperatureF,Dew PointF,Humidity,Sea Level PressureIn,VisibilityMPH,Wind Direction,Wind SpeedMPH,Gust SpeedMPH,PrecipitationIn,Events,Conditions,WindDirDegrees,DateUTC
12:55 AM,48.0,43.0,83,30.31,10.0,Calm,Calm,-,N/A,,Clear,0,2013-04-28 04:55:00
1:55 AM,46.4,43.5,90,30.31,10.0,Calm,Calm,-,N/A,,Clear,0,2013-04-28 05:55:00
2:55 AM,47.1,43.5,87,30.31,10.0,Calm,Calm,-,N/A,,Clear,0,2013-04-28 06:55:00
3:55 AM,44.4,42.8,94,30.28,10.0,Calm,Calm,-,N/A,,Clear,0,2013-04-28 07:55:00
4:55 AM,43.2,41.9,95,30.28,10.0,Calm,Calm,-,N/A,,Clear,0,2013-04-28 08:55:00
5:55 AM,42.4,41.2,95,30.27,10.0,Calm,Calm,-,N/A,,Clear,0,2013-04-28 09:55:00
6:02 AM,42.8,41.0,93,30.27,9.0,Calm,Calm,-,N/A,,Clear,0,2013-04-28 10:02:00
6:03 AM,42.8,41.0,93,30.27,8.0,Calm,Calm,-,N/A,,Clear,0,2013-04-28 10:03:00
6:55 AM,41.9,40.6,95,30.29,9.0,Calm,Calm,-,N/A,,Clear,0,2013-04-28 10:55:00
7:55 AM,48.6,45.9,90,30.30,10.0,Calm,Calm,-,N/A,,Clear,0,2013-04-28 11:55:00
8:55 AM,57.9,40.8,53,30.29,10.0,SSE,5.8,-,N/A,,Clear,160,2013-04-28 12:55:00
9:55 AM,61.0,39.9,46,30.29,10.0,Variable,5.8,-,N/A,,Scattered Clouds,0,2013-04-28 13:55:00
10:55 AM,65.8,40.6,40,30.28,10.0,SE,11.5,-,N/A,,Partly Cloudy,130,2013-04-28 14:55:00
11:55 AM,66.0,37.9,36,30.28,10.0,SE,11.5,-,N/A,,Scattered Clouds,130,2013-04-28 15:55:00
12:55 PM,65.7,36.7,34,30.27,10.0,SSE,8.1,-,N/A,,Scattered Clouds,160,2013-04-28 16:55:00
1:55 PM,65.7,37.0,35,30.26,10.0,SSW,6.9,-,N/A,,Partly Cloudy,200,2013-04-28 17:55:00
2:18 PM,64.4,42.8,45,30.27,10.0,Variable,6.9,-,N/A,Rain,Light Rain,0,2013-04-28 18:18:00
2:34 PM,62.6,44.6,52,30.27,10.0,WSW,8.1,17.3,N/A,,Clear,240,2013-04-28 18:34:00
2:43 PM,62.6,46.4,55,30.27,10.0,Variable,6.9,-,N/A,Rain,Light Rain,0,2013-04-28 18:43:00
2:55 PM,60.4,48.4,64,30.27,10.0,Variable,5.8,-,0.00,Rain,Light Rain,0,2013-04-28 18:55:00
3:55 PM,59.7,51.3,74,30.23,10.0,Calm,Calm,-,0.01,Rain,Light Rain,0,2013-04-28 19:55:00
3:56 PM,59.0,51.8,77,30.23,10.0,Calm,Calm,-,N/A,,Partly Cloudy,0,2013-04-28 19:56:00
4:55 PM,60.6,50.5,69,30.21,10.0,Calm,Calm,-,N/A,,Overcast,0,2013-04-28 20:55:00
5:55 PM,60.3,49.5,68,30.19,10.0,Calm,Calm,-,N/A,,Overcast,0,2013-04-28 21:55:00
6:55 PM,60.3,42.6,52,30.17,10.0,SE,5.8,-,N/A,,Overcast,130,2013-04-28 22:55:00
7:55 PM,58.8,43.7,57,30.17,10.0,ESE,9.2,-,N/A,,Overcast,120,2013-04-28 23:55:00
8:55 PM,58.6,47.5,66,30.19,10.0,SE,5.8,-,N/A,,Overcast,130,2013-04-29 00:55:00
9:55 PM,58.5,47.8,68,30.18,10.0,SE,8.1,-,N/A,,Overcast,130,2013-04-29 01:55:00
10:55 PM,57.7,45.0,62,30.19,10.0,ESE,3.5,-,N/A,,Overcast,120,2013-04-29 02:55:00
11:55 PM,57.2,45.5,65,30.18,10.0,SSE,6.9,-,N/A,,Overcast,150,2013-04-29 03:55:00